Radiation Dose at Monitoring Post of Fukushima Daini Nuclear Power Station
Date,Time,MP-1(microSv/h),MP-2(microSv/h),MP-3(microSv/h),MP-4(microSv/h),MP-5(microSv/h),MP-6(microSv/h),MP-7(microSv/h),Wind Direction,Wind Velocity(m/s),Rain
2021/07/20,00:00,0.166,0.154,0.245,0.238,0.236,0.131,0.083,north,3.3,No
2021/07/20,00:10,0.167,0.154,0.244,0.239,0.237,0.132,0.084,north,2.0,No
2021/07/20,00:20,0.167,0.153,0.247,0.238,0.238,0.130,0.083,north,1.1,No
2021/07/20,00:30,0.165,0.154,0.244,0.237,0.236,0.130,0.083,north,0.8,No
2021/07/20,00:40,0.168,0.154,0.248,0.239,0.237,0.131,0.083,north,1.2,No
2021/07/20,00:50,0.166,0.153,0.244,0.238,0.237,0.130,0.083,north,1.3,No
2021/07/20,01:00,0.166,0.155,0.245,0.238,0.235,0.131,0.083,north,1.4,No
2021/07/20,01:10,0.167,0.154,0.246,0.240,0.237,0.130,0.084,north,1.2,No
2021/07/20,01:20,0.167,0.155,0.244,0.237,0.238,0.130,0.083,north,1.2,No
2021/07/20,01:30,0.165,0.154,0.245,0.238,0.234,0.131,0.083,north-northeast,0.6,No
2021/07/20,01:40,0.168,0.155,0.244,0.238,0.237,0.130,0.083,north,0.7,No
2021/07/20,01:50,0.167,0.155,0.246,0.239,0.237,0.130,0.082,north,1.1,No
2021/07/20,02:00,0.168,0.154,0.247,0.241,0.235,0.130,0.083,north,0.9,No
2021/07/20,02:10,0.168,0.156,0.245,0.237,0.237,0.130,0.083,north,0.8,No
2021/07/20,02:20,0.167,0.154,0.247,0.240,0.237,0.131,0.083,north-northeast,1.0,No
2021/07/20,02:30,0.167,0.154,0.246,0.239,0.235,0.131,0.083,-,CALM,No
2021/07/20,02:40,0.168,0.155,0.244,0.238,0.239,0.131,0.084,-,CALM,No
2021/07/20,02:50,0.166,0.155,0.247,0.238,0.238,0.131,0.083,-,CALM,No
2021/07/20,03:00,0.168,0.155,0.244,0.238,0.237,0.130,0.085,south-southwest,0.7,No
2021/07/20,03:10,0.167,0.154,0.246,0.239,0.240,0.131,0.084,south,0.7,No
2021/07/20,03:20,0.167,0.155,0.246,0.239,0.236,0.131,0.083,south-southeast,0.7,No
2021/07/20,03:30,0.168,0.156,0.246,0.237,0.237,0.130,0.084,south-southeast,1.0,No
2021/07/20,03:40,0.166,0.154,0.247,0.239,0.239,0.132,0.083,south-southeast,1.5,No
2021/07/20,03:50,0.167,0.155,0.245,0.237,0.234,0.131,0.083,south-southwest,2.5,No
2021/07/20,04:00,0.167,0.154,0.245,0.238,0.237,0.131,0.082,southwest,2.5,No
2021/07/20,04:10,0.166,0.155,0.244,0.239,0.238,0.132,0.084,southwest,4.0,No
2021/07/20,04:20,0.168,0.155,0.246,0.237,0.235,0.129,0.082,south-southwest,3.5,No
2021/07/20,04:30,0.167,0.154,0.246,0.238,0.239,0.131,0.083,southwest,3.8,No
2021/07/20,04:40,0.166,0.155,0.245,0.237,0.236,0.131,0.083,south-southwest,3.5,No
2021/07/20,04:50,0.167,0.153,0.247,0.238,0.237,0.130,0.083,south-southwest,3.3,No
2021/07/20,05:00,0.166,0.155,0.245,0.240,0.238,0.132,0.083,south-southwest,3.0,No
2021/07/20,05:10,0.167,0.154,0.247,0.237,0.237,0.131,0.083,southwest,2.4,No
2021/07/20,05:20,0.168,0.156,0.245,0.239,0.238,0.130,0.082,southwest,1.9,No
2021/07/20,05:30,0.166,0.154,0.246,0.237,0.238,0.131,0.083,southwest,1.8,No
2021/07/20,05:40,0.168,0.153,0.247,0.237,0.234,0.130,0.082,southwest,1.6,No
2021/07/20,05:50,0.166,0.155,0.245,0.240,0.239,0.131,0.083,southwest,1.2,No
2021/07/20,06:00,0.166,0.154,0.247,0.237,0.236,0.130,0.083,south-southwest,0.7,No
2021/07/20,06:10,0.167,0.154,0.245,0.238,0.233,0.129,0.082,southwest,1.0,No
2021/07/20,06:20,0.165,0.155,0.245,0.238,0.237,0.130,0.081,west-southwest,1.0,No
2021/07/20,06:30,0.164,0.153,0.247,0.235,0.236,0.130,0.082,west-southwest,0.8,No
2021/07/20,06:40,0.166,0.153,0.244,0.236,0.234,0.129,0.082,west,0.9,No
2021/07/20,06:50,0.165,0.151,0.243,0.237,0.233,0.131,0.081,west-southwest,2.2,No
2021/07/20,07:00,0.164,0.152,0.246,0.237,0.237,0.129,0.081,west-southwest,1.7,No
2021/07/20,07:10,0.166,0.152,0.243,0.234,0.235,0.129,0.080,southwest,2.2,No
2021/07/20,07:20,0.166,0.154,0.243,0.235,0.233,0.129,0.081,west-southwest,1.1,No
2021/07/20,07:30,0.164,0.154,0.243,0.236,0.233,0.130,0.081,-,CALM,No
2021/07/20,07:40,0.164,0.154,0.242,0.238,0.236,0.129,0.081,-,CALM,No
2021/07/20,07:50,0.168,0.153,0.244,0.236,0.237,0.128,0.082,-,CALM,No
2021/07/20,08:00,0.167,0.153,0.244,0.237,0.235,0.130,0.082,-,CALM,No
2021/07/20,08:10,0.165,0.153,0.242,0.235,0.234,0.130,0.082,northeast,0.6,No
2021/07/20,08:20,0.165,0.152,0.244,0.235,0.236,0.129,0.082,northeast,1.0,No
2021/07/20,08:30,0.164,0.152,0.244,0.236,0.234,0.129,0.081,northeast,0.6,No
2021/07/20,08:40,0.166,0.152,0.245,0.236,0.235,0.130,0.082,northeast,0.7,No
2021/07/20,08:50,0.167,0.153,0.246,0.237,0.235,0.130,0.082,east,0.6,No
2021/07/20,09:00,0.167,0.153,0.245,0.236,0.235,0.130,0.082,east-northeast,0.7,No
2021/07/20,09:10,0.167,0.153,0.244,0.237,0.235,0.130,0.082,east,1.5,No
2021/07/20,09:20,0.166,0.154,0.245,0.237,0.235,0.129,0.082,east,1.6,No
2021/07/20,09:30,0.165,0.153,0.245,0.238,0.237,0.130,0.082,east,1.0,No
2021/07/20,09:40,0.164,0.153,0.246,0.237,0.236,0.130,0.082,southeast,0.9,No
2021/07/20,09:50,0.165,0.154,0.245,0.238,0.235,0.130,0.081,east-southeast,1.1,No
2021/07/20,10:00,0.165,0.153,0.245,0.238,0.236,0.130,0.081,east-southeast,1.0,No
2021/07/20,10:10,0.165,0.154,0.245,0.238,0.236,0.130,0.082,east,1.2,No
2021/07/20,10:20,0.165,0.154,0.245,0.237,0.237,0.130,0.082,east,1.3,No
2021/07/20,10:30,0.165,0.154,0.245,0.237,0.235,0.131,0.082,east-southeast,1.2,No
2021/07/20,10:40,0.165,0.154,0.245,0.238,0.235,0.129,0.081,east,1.3,No
2021/07/20,10:50,0.164,0.153,0.243,0.238,0.235,0.130,0.081,east-southeast,2.2,No
2021/07/20,11:00,0.164,0.153,0.243,0.237,0.235,0.129,0.081,east-southeast,1.7,No
2021/07/20,11:10,0.166,0.153,0.245,0.237,0.235,0.129,0.082,southeast,2.0,No
2021/07/20,11:20,0.165,0.153,0.244,0.236,0.234,0.129,0.081,southeast,1.8,No
2021/07/20,11:30,0.165,0.153,0.244,0.236,0.236,0.130,0.081,south-southeast,1.6,No
2021/07/20,11:40,0.165,0.152,0.245,0.237,0.235,0.129,0.082,southeast,1.7,No
2021/07/20,11:50,0.166,0.153,0.246,0.236,0.235,0.129,0.081,east-southeast,1.6,No
2021/07/20,12:00,0.165,0.152,0.245,0.237,0.235,0.130,0.082,southeast,1.9,No
2021/07/20,12:10,0.165,0.153,0.244,0.237,0.235,0.130,0.081,southeast,2.5,No
2021/07/20,12:20,0.165,0.153,0.244,0.236,0.235,0.130,0.081,east-southeast,2.2,No
2021/07/20,12:30,0.166,0.152,0.244,0.237,0.235,0.130,0.081,east-southeast,1.3,No
2021/07/20,12:40,0.166,0.152,0.244,0.238,0.234,0.130,0.081,southeast,1.6,No
2021/07/20,12:50,0.165,0.153,0.245,0.237,0.235,0.130,0.082,east-southeast,2.2,No
2021/07/20,13:00,0.166,0.153,0.246,0.238,0.236,0.130,0.082,southeast,1.9,No
2021/07/20,13:10,0.165,0.152,0.245,0.237,0.234,0.130,0.082,east-southeast,1.7,No
2021/07/20,13:20,0.165,0.152,0.244,0.238,0.234,0.130,0.082,southeast,2.1,No
2021/07/20,13:30,0.165,0.153,0.245,0.238,0.235,0.130,0.082,south-southeast,2.8,No
2021/07/20,13:40,0.166,0.153,0.244,0.237,0.234,0.129,0.081,south-southeast,2.8,No
2021/07/20,13:50,0.166,0.153,0.244,0.236,0.233,0.129,0.082,south-southeast,3.0,No
2021/07/20,14:00,0.165,0.154,0.243,0.236,0.235,0.129,0.082,south,2.8,No
2021/07/20,14:10,0.165,0.153,0.244,0.236,0.234,0.129,0.081,south,4.3,No
2021/07/20,14:20,0.165,0.154,0.243,0.236,0.234,0.130,0.082,south-southeast,4.5,No
2021/07/20,14:30,0.166,0.153,0.246,0.236,0.235,0.130,0.081,south,4.5,No
2021/07/20,14:40,0.166,0.153,0.245,0.237,0.234,0.130,0.081,south,4.5,No
2021/07/20,14:50,0.165,0.153,0.244,0.237,0.234,0.129,0.082,south,5.1,No
2021/07/20,15:00,0.165,0.152,0.245,0.237,0.235,0.129,0.080,south-southeast,4.5,No
2021/07/20,15:10,0.165,0.153,0.245,0.237,0.234,0.129,0.081,south,5.3,No
2021/07/20,15:20,0.166,0.152,0.245,0.235,0.234,0.129,0.081,south-southeast,5.7,No
2021/07/20,15:30,0.165,0.153,0.246,0.236,0.235,0.129,0.081,south-southeast,6.0,No
2021/07/20,15:40,0.165,0.153,0.245,0.237,0.234,0.130,0.081,south-southeast,6.3,No
2021/07/20,15:50,0.166,0.152,0.244,0.237,0.235,0.128,0.081,south-southeast,6.5,No
2021/07/20,16:00,0.165,0.152,0.243,0.237,0.233,0.129,0.081,south-southeast,6.9,No
2021/07/20,16:10,0.164,0.152,0.244,0.236,0.234,0.128,0.080,south-southeast,6.9,No
2021/07/20,16:20,0.163,0.152,0.244,0.235,0.234,0.129,0.081,south-southeast,5.7,No
2021/07/20,16:30,0.165,0.152,0.243,0.235,0.233,0.128,0.081,south,6.2,No
2021/07/20,16:40,0.165,0.151,0.243,0.234,0.233,0.129,0.081,south,6.5,No
2021/07/20,16:50,0.166,0.151,0.243,0.236,0.233,0.128,0.081,south,6.3,No
2021/07/20,17:00,0.165,0.153,0.247,0.237,0.233,0.128,0.081,south-southeast,6.5,No
2021/07/20,17:10,0.164,0.153,0.247,0.237,0.233,0.128,0.081,south-southeast,6.1,No
2021/07/20,17:20,0.165,0.153,0.244,0.236,0.233,0.128,0.081,south,5.5,No
2021/07/20,17:30,0.163,0.152,0.244,0.236,0.233,0.129,0.081,south,4.3,No
2021/07/20,17:40,0.164,0.152,0.244,0.236,0.232,0.129,0.081,south-southeast,2.1,No
2021/07/20,17:50,0.167,0.154,0.247,0.238,0.236,0.129,0.080,south,3.9,No
2021/07/20,18:00,0.166,0.152,0.245,0.237,0.235,0.127,0.082,south,3.5,No
2021/07/20,18:10,0.165,0.152,0.243,0.235,0.234,0.128,0.081,south,4.6,No
2021/07/20,18:20,0.164,0.153,0.244,0.236,0.233,0.130,0.081,south,3.8,No
2021/07/20,18:30,0.166,0.154,0.246,0.239,0.234,0.129,0.080,south,3.9,No
2021/07/20,18:40,0.167,0.154,0.246,0.237,0.237,0.129,0.081,south,3.5,No
2021/07/20,18:50,0.165,0.152,0.243,0.236,0.235,0.129,0.081,south,2.4,No
2021/07/20,19:00,0.164,0.153,0.246,0.238,0.233,0.130,0.081,south,3.1,No
2021/07/20,19:10,0.166,0.153,0.245,0.239,0.233,0.129,0.081,south,4.7,No
2021/07/20,19:20,0.167,0.152,0.244,0.236,0.237,0.128,0.081,south-southwest,3.8,No
2021/07/20,19:30,0.165,0.153,0.246,0.237,0.235,0.129,0.081,south-southwest,2.4,No
2021/07/20,19:40,0.164,0.153,0.247,0.239,0.236,0.131,0.080,south-southwest,2.8,No
2021/07/20,19:50,0.167,0.153,0.245,0.238,0.234,0.129,0.082,south-southwest,2.6,No
2021/07/20,20:00,0.166,0.155,0.244,0.238,0.238,0.130,0.081,south-southwest,2.3,No
2021/07/20,20:10,0.164,0.153,0.247,0.238,0.236,0.129,0.081,southwest,2.0,No
2021/07/20,20:20,0.166,0.154,0.246,0.238,0.233,0.129,0.081,south-southwest,2.5,No
2021/07/20,20:30,0.168,0.154,0.245,0.238,0.236,0.129,0.082,south,2.6,No
2021/07/20,20:40,0.165,0.153,0.248,0.239,0.237,0.129,0.081,south,3.2,No
2021/07/20,20:50,0.165,0.153,0.246,0.239,0.234,0.129,0.081,south,3.5,No
2021/07/20,21:00,0.167,0.154,0.245,0.237,0.235,0.129,0.082,south,3.6,No
2021/07/20,21:10,0.166,0.154,0.248,0.238,0.238,0.130,0.081,south,3.6,No
2021/07/20,21:20,0.164,0.152,0.246,0.239,0.234,0.129,0.081,south,3.9,No
2021/07/20,21:30,0.166,0.154,0.245,0.238,0.234,0.129,0.082,south-southwest,3.7,No
2021/07/20,21:40,0.166,0.152,0.247,0.237,0.238,0.131,0.082,south-southwest,4.0,No
2021/07/20,21:50,0.165,0.152,0.246,0.241,0.237,0.131,0.082,south,3.5,No
2021/07/20,22:00,0.167,0.156,0.246,0.238,0.235,0.130,0.083,south-southwest,4.3,No
2021/07/20,22:10,0.167,0.153,0.248,0.238,0.238,0.131,0.083,south-southwest,4.8,No
2021/07/20,22:20,0.166,0.154,0.246,0.240,0.237,0.130,0.082,south-southwest,5.2,No
2021/07/20,22:30,0.167,0.155,0.247,0.238,0.235,0.131,0.083,south-southwest,4.4,No
2021/07/20,22:40,0.168,0.154,0.249,0.239,0.237,0.131,0.084,southwest,2.6,No
2021/07/20,22:50,0.165,0.156,0.245,0.241,0.237,0.130,0.083,southwest,1.4,No
2021/07/20,23:00,0.167,0.154,0.247,0.238,0.235,0.131,0.083,south-southwest,1.9,No
2021/07/20,23:10,0.168,0.154,0.248,0.239,0.236,0.131,0.083,west,0.9,No
2021/07/20,23:20,0.165,0.155,0.245,0.240,0.238,0.131,0.083,southwest,1.5,No
2021/07/20,23:30,0.169,0.154,0.249,0.238,0.235,0.131,0.083,southwest,2.9,No
2021/07/20,23:40,0.169,0.154,0.247,0.240,0.237,0.131,0.082,west-southwest,1.3,No
2021/07/20,23:50,0.166,0.154,0.248,0.240,0.238,0.131,0.083,west-southwest,0.6,No
